Weather in Klepikovo

Russia / Tyumen Oblast     55°57′35″N   69°27′13″E
temp.,
°C
wind,
m/s
gust,
m/s
humid.,
%
clouds,
%
prec.,
mm/h
press.,
hPa
HPBL,
m
19 april, mon
mon1923:00−5nne6105490 0.0 10271407
02:00−6nne685294 0.0 10281285
05:00−7nne585014 0.0 10311119
08:00−7n68415 0.0 10321247
11:00−3n6733100 0.0 10321806
14:00−1n6728100 0.0 10322168
17:00−1n5729100 0.0 10322269
20:00−3nne364428 0.0 1033169
20 april, tue
tue2023:00−4ene24515 0.0 1033142
02:00−5ne11505 0.0 103329
05:00−5nw11510 0.0 103411
08:00−3wnw34382 0.0 10331115
11:000wnw45305 0.0 10321331
14:00+4w57295 0.0 10291536
17:00+5w69365 0.0 10271713
20:00+2wsw4105545 0.0 1026193
21 april, wed
wed2123:00+1w5126289 0.0 1025256
02:00+1wnw5136676 0.0 1024297
05:000nw4108086 0.0 1025222
08:00+3n5977100 0.0 1027599
11:00+6n674837 0.0 10281286
14:00+8n574126 0.0 10291565
17:00+8nne56395 0.0 10311645
20:00+4ne35565 0.0 1033103
22 april, thu
thu2223:00+2e35671 0.0 103695
02:000ese36783 0.0 1037115
05:00−1ese24760 0.0 103976
08:00+2se34560 0.0 1041515
11:00+6se33435 0.0 10411066
14:00+8sse33355 0.0 10401341
17:00+9s33342 0.0 10401433
20:00+5sse36505 0.0 104199
23 april, fri
fri2323:00+3sse38580 0.0 1041156
02:00+2sse38630 0.0 1041156
05:00+1sse37660 0.0 1042137
08:00+5sse58500 0.0 1042399
11:00+9sse56380 0.0 10411195
14:00+12s56350 0.0 10391652
17:00+12sse55355 0.0 10391772
20:00+8se48505 0.0 1039169